Location: Kellogg
(38.0159°N, 90.0546°W)
Time: 13:23:13
(UTC+00:00)

Envisat - Pass Details

Date: 14 August 2024
Orbit: 762 x 764 km, 98.3° (Epoch: 16 September)

Event Time Altitude Azimuth Distance (km) Brightness Sun altitude
Rises 07:41:50 0° 39° (NE) 3,231 7.3 -33.1°
Reaches altitude 10° 07:46:20 10° 76° (ENE) 2,297 5.9 -32.6°
Maximum altitude 07:47:30 11° 90° (E) 2,245 5.7 -32.5°
Drops below altitude 10° 07:48:39 10° 103° (ESE) 2,293 5.6 -32.4°
Enters shadow 07:49:04 10° 108° (ESE) 2,334 5.6 -32.4°
